Stations météo

réclame
Mon MeteoGroup
Dunkerque, France (7010): Température de l'air & dewpoint: 12.01.2019 13:00:00 - 18.01.2019 13:00:00 (CET)Dunkerque, France (7010): Vitesse du vent & gusts: 12.01.2019 13:00:00 - 18.01.2019 13:00:00 (CET)Dunkerque, France (7010): Direction du vent: 12.01.2019 13:00:00 - 18.01.2019 13:00:00 (CET)Dunkerque, France (7010): reduced air pressure: 12.01.2019 13:00:00 - 18.01.2019 13:00:00 (CET)Dunkerque, France (7010): visibility: 12.01.2019 13:00:00 - 18.01.2019 13:00:00 (CET)Dunkerque, France (7010): Quantités de précipitations: 12.01.2019 13:00:00 - 18.01.2019 13:00:00 (CET)
Date & Time tt [°C] td [°C] ff [km/h] ff [knt] fx [km/h] fx [knt] dd ppp [hPa] vv [km] rr [mm]
18.01.2019 13:00:00 - - - - - - - - - -
18.01.2019 12:00:00 3,9 1,3 9 5 14 7 S 1020,1 - 0,0
18.01.2019 11:00:00 3,2 1,1 9 5 12 6 SSW 1019,9 - 0,0
18.01.2019 10:00:00 2,5 0,9 9 5 11 6 S 1019,5 8 0,0
18.01.2019 09:00:00 3,7 1,2 8 4 8 4 SSW 1019,2 - 0,0
18.01.2019 08:00:00 4,5 1,2 5 3 18 10 W 1019,0 - 0,0
18.01.2019 07:00:00 4,7 1,9 14 8 24 13 WNW 1018,9 - 0,0
18.01.2019 06:00:00 5,1 1,6 12 7 17 9 WNW 1018,9 - 0,0
18.01.2019 05:00:00 4,9 1,2 9 5 20 11 NW 1018,8 - 0,0
18.01.2019 04:00:00 5,0 1,7 13 7 22 12 NNW 1018,7 14 0,0
18.01.2019 03:00:00 5,0 1,3 17 9 29 16 NNW 1018,5 - 0,0
18.01.2019 02:00:00 5,4 1,7 18 10 33 18 NNW 1018,4 - 0,0
18.01.2019 01:00:00 5,4 1,7 22 12 42 23 N 1017,9 - 0,0
18.01.2019 00:00:00 5,4 1,1 28 15 48 26 N 1017,3 - 0,0
17.01.2019 23:00:00 5,2 0,8 35 19 56 30 NNW 1016,7 - 0,0
17.01.2019 22:00:00 5,4 1,1 41 22 60 32 NNW 1016,4 - 0,0
17.01.2019 21:00:00 5,4 0,8 32 17 55 30 NW 1016,0 - 0,0
17.01.2019 20:00:00 5,4 0,2 35 19 58 31 NW 1015,2 - 0,0
17.01.2019 19:00:00 5,2 0,0 33 18 55 30 NW 1014,4 12 0,0
17.01.2019 18:00:00 5,1 -0,1 35 19 58 31 NW 1013,5 - 0,0
17.01.2019 17:00:00 4,9 -0,3 37 20 62 33 NW 1012,5 - 0,0
17.01.2019 16:00:00 5,0 -0,6 37 20 61 33 NW 1011,4 - 0,0
17.01.2019 15:00:00 5,0 -1,3 42 23 61 33 NW 1010,4 - 0,0
17.01.2019 14:00:00 4,8 -0,6 39 21 64 35 NW 1009,5 - 0,0
17.01.2019 13:00:00 4,5 -0,1 34 18 59 32 NW 1009,2 10 0,0
17.01.2019 12:00:00 5,0 0,6 31 17 56 30 NW 1007,9 - 0,0
17.01.2019 11:00:00 5,2 2,0 36 19 55 30 NNW 1006,8 - 0,0
17.01.2019 10:00:00 5,5 1,8 38 20 58 31 NNW 1005,5 - 0,0
17.01.2019 09:00:00 6,0 3,2 31 17 50 27 NW 1004,0 - 0,2
17.01.2019 08:00:00 5,6 4,1 25 14 39 21 NW 1002,9 - 0,4
17.01.2019 07:00:00 4,3 2,8 16 8 28 15 SW 1002,5 11 0,2
17.01.2019 06:00:00 4,5 3,2 14 8 36 19 SSW 1002,3 - 0,8
17.01.2019 05:00:00 5,6 3,6 21 11 36 19 SW 1002,9 - 0,2
17.01.2019 04:00:00 4,9 3,4 9 5 18 10 SSW 1003,2 15 0,0
17.01.2019 03:00:00 6,8 4,3 10 6 36 19 WSW 1003,3 - 0,0
17.01.2019 02:00:00 7,0 4,5 20 11 34 19 W 1003,7 - 0,0
17.01.2019 01:00:00 7,0 5,0 19 11 37 20 W 1004,0 - 0,0
17.01.2019 00:00:00 6,9 4,6 22 12 35 19 W 1004,3 - 0,0
16.01.2019 23:00:00 6,4 4,6 26 14 34 18 WNW 1003,6 - 0,0
16.01.2019 22:00:00 6,4 5,5 5 3 34 19 WSW 1003,0 - 1,0
16.01.2019 21:00:00 6,6 5,7 22 12 41 22 W 1003,1 - 3,2
16.01.2019 20:00:00 6,6 5,4 23 13 40 21 SSW 1002,3 - 0,0
16.01.2019 19:00:00 7,1 4,7 24 13 38 20 SSW 1002,8 12 0,0
16.01.2019 18:00:00 6,7 4,2 25 14 45 24 SSW 1003,6 - 0,0
16.01.2019 17:00:00 7,0 4,0 25 13 41 22 SSW 1004,2 - 0,0
16.01.2019 16:00:00 7,2 3,8 24 13 46 25 SSW 1004,9 - 0,0
16.01.2019 15:00:00 7,5 3,7 26 14 41 22 SSW 1005,4 - 0,0
16.01.2019 14:00:00 7,4 3,6 24 13 45 24 SSW 1006,4 - 0,0
16.01.2019 13:00:00 7,0 3,4 22 12 41 22 SSW 1007,8 - 0,0
16.01.2019 12:00:00 6,6 3,7 26 14 42 23 SSW 1009,0 - 0,0
16.01.2019 11:00:00 6,1 3,6 24 13 41 22 SSW 1009,9 - 0,0
16.01.2019 10:00:00 6,1 3,8 27 14 41 22 SSW 1010,2 12 0,0
16.01.2019 09:00:00 6,6 3,9 21 11 42 23 SSW 1010,8 - 0,0
16.01.2019 08:00:00 6,8 4,1 25 14 44 24 SSW 1011,0 - 0,0
16.01.2019 07:00:00 7,0 4,8 19 10 34 19 SSW 1011,2 12 0,0
16.01.2019 06:00:00 7,1 5,1 23 13 44 24 SSW 1011,9 - 0,0
16.01.2019 05:00:00 7,3 5,1 24 13 39 21 SSW 1012,6 - 0,0
16.01.2019 04:00:00 7,4 5,7 18 10 37 20 SSW 1013,5 12 0,0
16.01.2019 03:00:00 7,6 6,4 21 12 40 22 SW 1014,0 - 0,0
16.01.2019 02:00:00 8,2 6,7 17 9 40 22 SW 1014,6 - 0,0
16.01.2019 01:00:00 8,4 6,9 19 10 29 16 SW 1015,3 - 0,0
16.01.2019 00:00:00 8,0 6,8 13 7 32 17 SSW 1015,8 - 0,0
15.01.2019 23:00:00 8,4 6,9 19 10 31 17 SW 1016,5 - 0,0
15.01.2019 22:00:00 8,4 6,2 16 9 31 17 SSW 1017,0 - 0,0
15.01.2019 21:00:00 8,7 5,8 17 9 41 22 SSW 1017,5 - 0,0
15.01.2019 20:00:00 8,2 5,8 17 9 37 20 SSW 1017,9 - 0,0
15.01.2019 19:00:00 9,0 5,6 21 11 35 19 SW 1018,1 - 0,0
15.01.2019 18:00:00 9,0 5,2 17 9 42 23 WSW 1018,6 - 0,0
15.01.2019 17:00:00 9,0 5,0 19 10 41 22 WSW 1018,7 - 0,0
15.01.2019 16:00:00 9,1 4,5 22 12 45 24 SW 1018,9 - 0,0
15.01.2019 15:00:00 8,8 4,8 22 12 59 32 W 1019,1 - 0,0
15.01.2019 14:00:00 8,9 4,5 29 16 49 26 W 1019,6 - 0,0
15.01.2019 13:00:00 8,5 4,9 29 16 50 27 W 1020,2 15 0,0
15.01.2019 12:00:00 7,7 5,3 25 13 46 25 W 1020,8 - 0,0
15.01.2019 11:00:00 7,7 5,0 27 15 49 26 W 1020,9 - 0,0
15.01.2019 10:00:00 7,3 4,1 29 16 51 28 W 1021,1 - 0,0
15.01.2019 09:00:00 6,2 3,7 12 7 22 12 SW 1021,2 - 0,0
15.01.2019 08:00:00 6,7 3,7 16 9 34 19 WSW 1021,2 - 0,0
15.01.2019 07:00:00 6,6 3,9 21 11 34 18 W 1021,3 - 0,0
15.01.2019 06:00:00 6,8 3,9 17 9 32 17 WSW 1021,3 - 0,0
15.01.2019 05:00:00 7,2 4,2 21 11 32 17 W 1021,9 - 0,0
15.01.2019 04:00:00 7,4 5,0 17 9 28 15 W 1022,2 15 0,0
15.01.2019 03:00:00 7,4 4,5 16 8 25 14 W 1022,5 - 0,0
15.01.2019 02:00:00 7,5 4,8 18 10 26 14 W 1022,3 - 0,0
15.01.2019 01:00:00 7,4 4,9 16 9 25 14 W 1022,4 15 0,0
15.01.2019 00:00:00 7,7 5,3 16 9 25 13 W 1022,7 - 0,0
14.01.2019 23:00:00 7,2 4,8 15 8 22 12 WNW 1022,6 - 0,0
14.01.2019 22:00:00 7,2 4,2 13 7 19 10 WNW 1022,4 15 0,0
14.01.2019 21:00:00 7,2 3,8 15 8 22 12 WNW 1022,4 - 0,0
14.01.2019 20:00:00 7,3 4,1 14 8 21 12 WNW 1022,2 - 0,0
14.01.2019 19:00:00 7,4 4,0 16 8 23 13 NW 1022,3 15 0,0
14.01.2019 18:00:00 7,2 4,5 16 9 24 13 NW 1022,1 - 0,0
14.01.2019 17:00:00 7,0 3,4 16 8 38 20 NNW 1021,6 - 0,2
14.01.2019 16:00:00 7,4 4,2 21 11 34 18 NNW 1020,9 15 0,0
14.01.2019 15:00:00 7,6 4,7 16 9 31 17 NNW 1020,4 - 0,0
14.01.2019 14:00:00 7,6 4,5 23 12 36 19 NNW 1020,2 - 0,0
14.01.2019 13:00:00 7,6 4,5 23 13 37 20 NNW 1019,5 15 0,0
14.01.2019 12:00:00 7,8 4,7 24 13 38 21 NNW 1019,2 - 0,0
14.01.2019 11:00:00 7,7 4,5 28 15 42 23 NNW 1018,6 - 0,0
14.01.2019 10:00:00 7,7 4,1 31 17 46 25 NW 1017,9 - 0,0
14.01.2019 09:00:00 7,7 4,3 34 18 48 26 NW 1017,0 - 0,0
14.01.2019 08:00:00 7,9 4,8 26 14 46 25 NW 1016,2 - 0,0
14.01.2019 07:00:00 8,0 4,6 28 15 49 26 NW 1015,7 15 0,0
14.01.2019 06:00:00 8,0 4,6 28 15 50 27 NW 1015,2 - 0,0
14.01.2019 05:00:00 8,1 4,5 32 18 47 26 NW 1014,8 - 0,0
14.01.2019 04:00:00 8,3 4,5 31 17 56 30 NW 1014,3 12 0,0
14.01.2019 03:00:00 8,4 4,2 39 21 54 29 NW 1013,4 - 0,0
14.01.2019 02:00:00 8,5 4,7 27 15 52 28 WNW 1012,6 - 0,0
14.01.2019 01:00:00 8,5 4,3 33 18 50 27 NW 1012,0 12 0,0
14.01.2019 00:00:00 8,8 4,2 30 16 54 29 NW 1011,7 - 0,0
13.01.2019 23:00:00 9,1 3,9 32 18 63 34 NW 1011,2 - 0,0
13.01.2019 22:00:00 9,5 6,2 31 17 58 31 WNW 1010,4 - 0,8
13.01.2019 21:00:00 9,6 7,2 37 20 58 31 WNW 1009,8 - 0,8
13.01.2019 20:00:00 10,2 7,4 34 19 54 29 W 1009,2 12 0,0
13.01.2019 19:00:00 10,1 7,9 29 16 48 26 W 1009,3 - 0,0
13.01.2019 18:00:00 10,2 7,8 32 17 51 28 W 1009,5 - 0,0
13.01.2019 17:00:00 10,4 7,8 29 16 51 28 W 1009,6 - 0,0
13.01.2019 16:00:00 10,4 7,3 31 17 64 34 W 1009,7 12 0,0
13.01.2019 15:00:00 10,3 7,0 35 19 61 33 W 1009,7 - 0,0
13.01.2019 14:00:00 10,3 7,5 34 18 57 31 W 1010,2 - 0,0
13.01.2019 13:00:00 10,4 7,5 37 20 62 34 W 1010,9 10 0,2
13.01.2019 12:00:00 9,7 8,1 34 18 54 29 W 1011,8 - 0,4
13.01.2019 11:00:00 10,0 7,9 34 18 55 30 W 1012,1 - 0,0
13.01.2019 10:00:00 9,7 7,6 29 16 46 25 W 1012,6 - 0,0
13.01.2019 09:00:00 9,7 8,0 32 17 49 26 W 1013,1 - 0,0
13.01.2019 08:00:00 9,7 7,5 34 18 52 28 W 1013,2 - 0,0
13.01.2019 07:00:00 10,0 7,2 32 18 54 29 W 1013,1 13 0,0
13.01.2019 06:00:00 9,6 7,2 28 15 47 25 W 1014,0 - 0,0
13.01.2019 05:00:00 9,1 7,0 29 16 48 26 W 1014,8 - 0,0
13.01.2019 04:00:00 8,9 7,0 27 14 55 30 W 1015,4 13 0,0
13.01.2019 03:00:00 9,0 7,1 30 16 55 30 W 1015,8 - 0,0
13.01.2019 02:00:00 8,6 6,9 29 16 49 27 W 1016,0 - 0,0
13.01.2019 01:00:00 8,5 7,0 29 16 47 26 W 1016,5 - 0,0
13.01.2019 00:00:00 8,3 7,5 31 17 46 25 W 1016,8 - 0,0
12.01.2019 23:00:00 8,5 6,5 34 18 49 26 W 1017,6 - 0,0
12.01.2019 22:00:00 8,7 5,8 23 13 40 22 W 1017,9 - 0,0
12.01.2019 21:00:00 9,0 5,6 32 17 42 23 WNW 1018,2 - 0,0
12.01.2019 20:00:00 9,0 5,9 26 14 40 22 W 1018,7 - 0,0
12.01.2019 19:00:00 8,8 6,1 25 13 42 23 W 1018,7 8 0,0
12.01.2019 18:00:00 8,7 7,1 27 15 44 24 W 1019,0 - 0,0
12.01.2019 17:00:00 8,6 7,2 29 15 47 25 W 1019,0 - 0,0
12.01.2019 16:00:00 8,7 7,1 31 17 48 26 W 1019,4 8 0,0
12.01.2019 15:00:00 8,7 7,3 31 17 49 26 W 1019,7 - 0,0
12.01.2019 14:00:00 8,9 7,2 30 16 53 29 W 1020,1 - 0,0
12.01.2019 13:00:00 9,0 7,1 31 17 65 35 W 1020,9 8 0,0

tt = Température de l'air
td = dewpoint
ff = Vitesse du vent
fx = gusts
dd = Direction du vent
ppp = reduced air pressure
vv = visibility
rr = Quantités de précipitations

stations d'obs. à proximité